Regional Weather Roundup
Issued by NWS Columbia, SC

Home | Current Version | Previous Version | Text Only | Print | Product List | Glossary On
Versions: 1 2 3 4 5 6 7 8 9 10 11 12 13 14 15 16 17 18 19 20 21 22 23 24 25 26 27 28 29 30 31 32 33 34 35 36 37 38 39 40 41 42 43 44 45 46 47 48 49 50
000
ASUS42 KCAE 312210
RWRCAE
REGIONAL WEATHER ROUNDUP
NATIONAL WEATHER SERVICE COLUMBIA SC
600 PM EDT FRI JUL 31 2015

NOTE: "FAIR" INDICATES FEW OR NO CLOUDS BELOW 12,000 FEET WITH NO
SIGNIFICANT WEATHER AND/OR OBSTRUCTIONS TO VISIBILITY.

NOT ALL STATIONS ARE QUALITY CONTROLLED BY THE NATIONAL
WEATHER SERVICE. USE DATA WITH CAUTION...ESPECIALLY
DEWPOINT OBSERVATIONS.

SCZ001>056-GAZ040-063>065-077-312300-
...UPSTATE SOUTH CAROLINA...

CITY           SKY/WX    TMP DP  RH WIND       PRES   REMARKS
ANDERSON       MOSUNNY   90  65  43 SE5       29.92S
SPARTANBURG      N/A     91  64  40 CALM      29.92F
CLEMSON        SUNNY     91  64  40 SE5       29.94S
GREENVILLE     MOSUNNY   90  63  40 CALM      29.94F
GREENWOOD      PTSUNNY   94  63  35 NE6       29.92S HX  95
GREER          MOSUNNY   89  65  44 CALM      29.92S
ROCK HILL      SUNNY     90  61  37 CALM      29.92F
CHESTER        CLEAR     91  54  27 NW5       29.92F
LAURENS        CLEAR     91  72  52 N5        29.92S HX  98


...CENTRAL SOUTH CAROLINA...

CITY           SKY/WX    TMP DP  RH WIND       PRES   REMARKS
COLUMBIA APT   MOSUNNY   95  64  35 CALM      29.87F HX  97
COLUMBIA OWENS SUNNY     95  64  35 NE3       29.88F HX  97
DARLINGTON     PTSUNNY   93  63  36 SE5       29.87S
FLORENCE       SUNNY     95  69  42 N7        29.86F HX 100
MCENTIRE ANGB  PTSUNNY   93  68  42 VRB3      29.88S HX  97
ORANGEBURG     PTSUNNY   83  71  67 S17G26    29.91R
SUMTER SHAW    SUNNY     94  67  40 W6        29.85F HX  97
NEWBERRY       PTCLDY    91  63  38 N3        29.94R
AIKEN          FAIR      91  61  35 SE3       29.93R
BARNWELL       FAIR      88  75  66 S7        29.90R HX  97
MANNING        RAIN      88  70  55 S6        29.87S
CAMDEN         FAIR      93  66  40 CALM      29.88S HX  96
LANCASTER      PTCLDY    90  63  40 E7        29.91S
WINNSBORO      CLEAR     91  61  35 N3        29.90S


...EASTERN AND COASTAL SOUTH CAROLINA...

CITY           SKY/WX    TMP DP  RH WIND       PRES   REMARKS
MYRTLE BEACH   MOSUNNY   88  75  66 S17       29.90R HX  97
N MYRTLE BCH   PTSUNNY   85  75  72 S10       29.87F
CONWAY         FAIR      79  79 100 N6        29.88S
MARION         MOCLDY   N/A N/A N/A CALM      29.87R
HARTSVILLE     FAIR      95  61  31 NW3       29.87S HX  95
FLORENCE       SUNNY     95  69  42 N7        29.86F HX 100
DARLINGTON     PTSUNNY   93  63  36 SE5       29.87S
CHARLESTON APT CLOUDY    86  76  71 SW9       29.89S HX  96
MOUNT PLEASANT FAIR      84  79  84 S8        29.90S HX  96
WALTERBORO     CLOUDY    79  73  83 SW6       29.92F
BEAUFORT       CLOUDY    79  73  82 W5        29.92R


...EASTERN GEORGIA...

CITY           SKY/WX    TMP DP  RH WIND       PRES   REMARKS
AUGUSTA BUSH F PTSUNNY   92  70  48 S17G24    29.88R HX  97
AUGUSTA DANIEL MOSUNNY   94  69  44 S8        29.90R HX  99
THOMSON        MOSUNNY   95  72  46 N7        29.93S HX 103
WASHINGTON     FAIR      97  72  44 CALM      29.91S HX 105
SYLVANIA       LGT RAIN  79  75  88 CALM      29.92R
STATESBORO     CLOUDY    76  76 100 CALM      29.91S
SAVANNAH       LGT RAIN  77  75  93 CALM      29.91S


...SOUTHERN NORTH CAROLINA...

CITY           SKY/WX    TMP DP  RH WIND       PRES   REMARKS
CHARLOTTE      MOSUNNY   91  51  25 N6        29.92F
MONROE         SUNNY     91  61  36 MISG      29.91F
WADESBORO      PTCLDY    92  56  30 NW6       29.88F
ROCKINGHAM     PTCLDY    92  64  39 NW9       29.87F
RUTHERFORDTON  MOSUNNY   89  57  34 E5        29.94F
ASHEVILLE      SUNNY     84  54  35 N8G18     30.02S

$$


USA.gov is the U.S. government's official web portal to all federal, state and local government web resources and services.